Stations météo

réclame
Mon MeteoGroup
Beauvais, France (7055): Température de l'air & dewpoint: 15.02.2018 02:00:00 - 21.02.2018 02:00:00 (CET)Beauvais, France (7055): Température de l'air 5cm: 15.02.2018 02:00:00 - 21.02.2018 02:00:00 (CET)Beauvais, France (7055): Température de l'air -20cm & Température de l'air -100cm: 15.02.2018 02:00:00 - 21.02.2018 02:00:00 (CET)Beauvais, France (7055): Vitesse du vent & gusts: 15.02.2018 02:00:00 - 21.02.2018 02:00:00 (CET)Beauvais, France (7055): Direction du vent: 15.02.2018 02:00:00 - 21.02.2018 02:00:00 (CET)Beauvais, France (7055): reduced air pressure: 15.02.2018 02:00:00 - 21.02.2018 02:00:00 (CET)Beauvais, France (7055): visibility: 15.02.2018 02:00:00 - 21.02.2018 02:00:00 (CET)Beauvais, France (7055): Ensoleillement: 15.02.2018 02:00:00 - 21.02.2018 02:00:00 (CET)Beauvais, France (7055): Quantités de précipitations: 15.02.2018 02:00:00 - 21.02.2018 02:00:00 (CET)
Date & Time tt [°C] td [°C] tt 5cm [°C] tt -20cm [°C] tt -100cm [°C] ff [km/h] ff [knt] fx [km/h] fx [knt] dd ppp [hPa] vv [km] sd [min] rr [mm]
21.02.2018 02:00:00 1,3 -0,3 0,1 5,5 6,9 6 3 14 8 NNE 1022,3 3,9 0 0,0
21.02.2018 01:00:00 2,0 0,7 0,6 5,5 6,9 11 6 21 11 NNE 1022,1 3,4 0 0,0
21.02.2018 00:00:00 3,3 1,7 2,7 5,5 6,9 13 7 25 13 NNE 1021,4 4,0 0 0,0
20.02.2018 23:00:00 3,4 2,4 3,0 5,5 6,9 11 6 18 10 N 1020,9 4,2 0 0,0
20.02.2018 22:00:00 3,3 2,3 3,0 5,5 6,9 5 3 17 9 N 1020,6 6 0 0,0
20.02.2018 21:00:00 3,3 2,3 2,5 5,4 6,9 8 5 17 9 NNW 1020,2 9 0 0,0
20.02.2018 20:00:00 3,0 1,8 2,6 5,4 6,9 8 5 20 11 N 1019,7 15 0 0,2
20.02.2018 19:00:00 3,4 1,8 3,0 5,3 6,9 16 9 24 13 NNE 1019,5 12 0 1,2
20.02.2018 18:00:00 4,7 2,7 4,2 5,3 6,9 14 8 18 10 NNE 1018,6 11 0 0,4
20.02.2018 17:00:00 5,6 3,3 5,8 5,3 6,9 8 4 12 6 NE 1017,9 10 0 0,0
20.02.2018 16:00:00 5,6 3,1 6,2 5,2 6,9 9 5 12 6 NNE 1017,9 9 0 0,0
20.02.2018 15:00:00 6,0 2,8 7,5 5,3 6,9 4 2 10 5 N 1017,9 18 0 0,0
20.02.2018 14:00:00 5,7 2,2 9,2 5,2 6,9 4 2 8 4 N 1018,4 16 0 0,0
20.02.2018 13:00:00 5,3 2,6 8,6 5,2 6,9 3 2 8 4 NNE 1018,8 13 0 0,0
20.02.2018 12:00:00 4,3 2,8 7,3 5,2 6,9 6 3 11 6 ENE 1019,1 13 0 0,0
20.02.2018 11:00:00 3,8 3,2 4,9 5,2 6,9 7 4 17 9 NE 1018,7 6 0 0,0
20.02.2018 10:00:00 3,3 2,9 3,7 5,2 6,9 10 5 26 14 NE 1018,6 5 0 0,0
20.02.2018 09:00:00 3,0 2,6 3,0 5,2 6,9 8 5 17 9 NE 1018,3 3,9 0 0,0
20.02.2018 08:00:00 2,8 2,4 3,0 5,2 6,9 12 7 16 9 NE 1017,7 5 0 0,0
20.02.2018 07:00:00 2,9 2,5 3,1 5,2 6,9 9 5 15 8 ENE 1017,2 4,0 0 0,0
20.02.2018 06:00:00 3,0 2,7 3,1 5,2 6,9 10 5 14 7 ENE 1016,4 4,4 0 0,0
20.02.2018 05:00:00 3,0 2,7 3,1 5,2 6,9 5 3 18 10 E 1016,1 4,0 0 0,0
20.02.2018 04:00:00 3,2 2,9 3,3 5,2 6,9 13 7 19 10 E 1016,0 1,8 0 0,0
20.02.2018 03:00:00 3,4 3,1 3,6 5,1 6,9 9 5 14 7 ENE 1016,0 3,6 0 0,0
20.02.2018 02:00:00 3,7 3,4 3,8 5,1 6,9 12 7 18 10 E 1015,5 1,9 0 0,0
20.02.2018 01:00:00 4,4 4,1 4,5 5,1 6,9 8 4 11 6 E 1015,5 1,2 0 0,2
20.02.2018 00:00:00 4,6 4,3 4,6 5,1 6,9 6 3 11 6 ESE 1015,4 1,7 0 0,2
19.02.2018 23:00:00 4,6 4,3 4,6 5,1 6,9 7 4 15 8 ESE 1015,4 1,3 0 0,4
19.02.2018 22:00:00 4,6 4,3 4,5 5,1 6,9 10 5 12 7 ESE 1015,6 0,9 0 0,8
19.02.2018 21:00:00 4,5 4,2 4,4 5,1 6,9 8 5 11 6 ESE 1016,0 0,5 0 0,8
19.02.2018 20:00:00 4,4 4,1 4,4 5,1 6,9 7 4 10 6 ESE 1016,2 0,5 0 0,4
19.02.2018 19:00:00 4,4 4,1 4,4 5,0 6,9 7 4 9 5 ESE 1016,6 0,4 0 0,4
19.02.2018 18:00:00 4,5 4,2 4,7 5,0 6,9 7 4 10 5 SE 1016,7 0,6 0 0,6
19.02.2018 17:00:00 4,4 4,1 4,9 5,0 6,9 8 4 11 6 ESE 1017,2 0,9 0 0,6
19.02.2018 16:00:00 4,1 3,8 4,9 5,0 6,9 9 5 11 6 ESE 1017,6 1,1 0 0,2
19.02.2018 15:00:00 3,8 3,4 4,8 5,0 6,9 10 5 12 7 ESE 1017,9 1,3 0 0,2
19.02.2018 14:00:00 3,4 3,0 4,3 5,0 6,9 11 6 16 9 SE 1018,4 1,4 0 0,4
19.02.2018 13:00:00 3,0 2,4 4,2 5,0 6,9 11 6 15 8 SE 1018,9 1,7 0 0,0
19.02.2018 12:00:00 2,4 1,7 2,6 5,1 6,9 9 5 17 9 SE 1019,2 4,5 0 0,0
19.02.2018 11:00:00 1,5 0,6 2,1 5,1 6,9 13 7 18 10 SE 1019,5 5 0 0,0
19.02.2018 10:00:00 1,3 0,4 1,5 5,1 6,9 13 7 18 10 SE 1019,7 6 0 0,0
19.02.2018 09:00:00 1,0 0,0 1,0 5,1 6,9 13 7 17 9 ESE 1020,3 6 0 0,0
19.02.2018 08:00:00 0,8 -0,2 0,9 5,1 6,9 11 6 16 9 ESE 1020,4 6 0 0,0
19.02.2018 07:00:00 0,7 -0,3 0,9 5,1 6,9 11 6 16 9 ESE 1020,5 6 0 0,0
19.02.2018 06:00:00 0,8 -0,2 0,9 5,1 6,9 13 7 18 10 SE 1020,6 6 0 0,0
19.02.2018 05:00:00 0,9 -0,3 0,8 5,1 6,9 13 7 17 9 ESE 1021,0 7 0 0,0
19.02.2018 04:00:00 1,0 -0,2 0,5 5,1 6,9 13 7 21 11 SE 1021,2 8 0 0,0
19.02.2018 03:00:00 0,9 -0,1 -0,2 5,2 6,9 11 6 15 8 ESE 1021,6 9 0 0,0
19.02.2018 02:00:00 0,7 -0,5 -0,3 5,1 6,9 9 5 18 10 SE 1021,9 8 0 0,0
19.02.2018 01:00:00 1,5 0,2 0,5 5,1 6,9 13 7 20 11 SE 1022,2 12 0 0,0
19.02.2018 00:00:00 1,5 0,0 0,1 5,1 6,9 14 7 16 9 ESE 1022,2 14 0 0,0
18.02.2018 23:00:00 2,3 0,0 -0,6 5,1 6,9 11 6 14 8 ESE 1022,7 16 0 0,0
18.02.2018 22:00:00 2,3 -0,1 -1,5 5,1 6,9 8 5 10 5 ESE 1023,0 17 0 0,0
18.02.2018 21:00:00 2,8 0,7 -1,4 5,1 7,0 8 4 10 6 SE 1023,0 16 0 0,0
18.02.2018 20:00:00 2,4 -0,2 -1,0 5,0 6,9 10 5 13 7 ESE 1023,2 14 0 0,0
18.02.2018 19:00:00 4,1 0,8 -0,1 5,0 6,9 7 4 13 7 SE 1023,2 20 0 0,0
18.02.2018 18:00:00 5,8 1,5 3,5 5,0 6,9 12 6 22 12 SE 1023,1 20 0 0,0
18.02.2018 17:00:00 7,7 3,2 7,4 5,0 6,9 16 8 24 13 SE 1022,9 16 21 0,0
18.02.2018 16:00:00 8,5 3,7 9,8 5,0 6,9 15 8 21 11 SE 1023,0 15 28 0,0
18.02.2018 15:00:00 8,9 3,7 13,1 5,0 6,9 15 8 24 13 SSE 1023,4 14 47 0,0
18.02.2018 14:00:00 8,5 3,7 13,2 5,1 6,9 16 9 24 13 SSE 1023,8 15 56 0,0
18.02.2018 13:00:00 7,7 3,9 11,9 5,1 6,9 16 9 21 11 ESE 1024,2 8 58 0,0
18.02.2018 12:00:00 5,8 3,1 8,2 5,1 6,9 9 5 13 7 ESE 1024,8 8 60 0,0
18.02.2018 11:00:00 3,4 2,2 5,0 5,2 6,9 9 5 14 8 ESE 1025,3 3,8 60 0,0
18.02.2018 10:00:00 1,5 1,2 0,2 5,2 6,9 4 2 8 4 SE 1025,3 2,4 60 0,0
18.02.2018 09:00:00 -0,5 -0,8 -4,7 5,2 6,9 6 3 9 5 E 1025,3 1,7 25 0,0
18.02.2018 08:00:00 -2,6 -3,2 -5,3 5,3 6,9 5 3 9 5 SE 1025,3 0,3 0 0,0
18.02.2018 07:00:00 -3,1 -3,8 -5,7 5,3 6,9 5 3 7 4 ESE 1025,5 0,2 0 0,0
18.02.2018 06:00:00 -3,0 -3,7 -5,2 5,4 6,9 3 2 5 3 ENE 1025,5 3,1 0 0,0
18.02.2018 05:00:00 -2,4 -3,0 -5,2 5,4 7,0 3 2 5 3 E 1025,5 0,2 0 0,0
18.02.2018 04:00:00 -1,9 -2,5 -5,0 5,4 6,9 5 3 6 3 E 1025,8 2,5 0 0,0
18.02.2018 03:00:00 -2,2 -3,0 -4,7 5,4 6,9 2 1 3 1 ESE 1025,8 2,5 0 0,0
18.02.2018 02:00:00 -1,7 -2,4 -4,8 5,4 6,9 4 2 5 3 ENE 1026,1 6 0 0,0
18.02.2018 01:00:00 -1,7 -2,5 -4,5 5,4 6,9 3 1 8 4 NW 1026,0 7 0 0,0
18.02.2018 00:00:00 -1,5 -2,9 -3,9 5,4 6,9 5 3 6 4 WNW 1026,2 9 0 0,0
17.02.2018 23:00:00 -1,0 -2,4 -3,5 5,4 6,9 6 3 7 4 NW 1025,9 12 0 0,0
17.02.2018 22:00:00 0,0 -1,6 -2,1 5,4 6,9 9 5 14 8 NNW 1025,4 14 0 0,0
17.02.2018 21:00:00 0,6 -0,7 -2,1 5,4 6,9 9 5 13 7 NNW 1024,9 15 0 0,0
17.02.2018 20:00:00 1,7 -0,4 -2,3 5,4 6,9 0 0 4 2 N 1024,8 15 0 0,0
17.02.2018 19:00:00 3,8 1,0 -0,9 5,3 6,9 0 0 10 5 N 1024,3 34 0 0,0
17.02.2018 18:00:00 6,8 1,3 3,4 5,3 6,9 7 4 12 6 N 1023,4 43 2 0,0
17.02.2018 17:00:00 8,9 1,8 8,4 5,2 6,9 6 4 21 11 N 1022,9 37 54 0,0
17.02.2018 16:00:00 9,2 1,1 10,4 5,2 6,8 11 6 18 10 N 1022,4 33 60 0,0
17.02.2018 15:00:00 8,9 1,8 12,4 5,2 6,9 12 7 23 12 N 1022,1 20 60 0,0
17.02.2018 14:00:00 8,5 2,9 13,2 5,2 6,9 10 5 17 9 N 1022,0 19 60 0,0
17.02.2018 13:00:00 6,9 2,4 9,2 5,2 6,9 9 5 16 9 NNE 1021,9 20 53 0,0
17.02.2018 12:00:00 5,6 1,9 5,8 5,3 6,9 12 7 19 11 NNE 1021,7 19 11 0,0
17.02.2018 11:00:00 4,2 1,1 3,9 5,3 6,9 11 6 21 12 NNE 1021,2 20 0 0,0
17.02.2018 10:00:00 3,5 1,0 2,4 5,3 6,9 14 7 24 13 N 1021,0 20 0 0,0
17.02.2018 09:00:00 2,4 0,5 1,5 5,3 6,9 10 5 14 8 N 1020,5 31 0 0,0
17.02.2018 08:00:00 1,9 0,4 1,3 5,3 6,9 5 3 10 5 N 1020,1 18 0 0,0
17.02.2018 07:00:00 2,0 0,2 1,3 5,3 6,9 6 3 11 6 NNE 1019,5 33 0 0,0
17.02.2018 06:00:00 2,7 0,3 1,7 5,3 6,9 7 4 12 7 NE 1019,6 43 0 0,0
17.02.2018 05:00:00 2,9 0,6 2,0 5,3 6,9 9 5 13 7 NNE 1020,2 43 0 0,0
17.02.2018 04:00:00 3,5 0,5 2,1 5,3 6,9 9 5 18 10 ENE 1020,4 48 0 0,0
17.02.2018 03:00:00 3,4 1,0 1,9 5,3 6,9 12 7 17 9 ENE 1020,9 45 0 0,0
17.02.2018 02:00:00 3,0 1,2 1,4 5,3 6,9 10 6 14 8 ENE 1021,9 34 0 0,0
17.02.2018 01:00:00 2,7 1,1 1,5 5,3 6,9 6 3 16 8 E 1022,6 34 0 0,0
17.02.2018 00:00:00 3,7 1,2 2,3 5,3 6,9 13 7 29 16 E 1023,0 36 0 0,0
16.02.2018 23:00:00 3,8 1,7 0,6 5,3 6,8 14 8 20 11 E 1023,9 36 0 0,0
16.02.2018 22:00:00 3,4 0,8 0,8 5,3 6,9 10 5 23 13 E 1024,7 40 0 0,0
16.02.2018 21:00:00 3,1 1,3 -0,1 5,2 6,9 13 7 19 10 ENE 1025,0 41 0 0,0
16.02.2018 20:00:00 2,5 0,7 -0,4 5,2 6,9 9 5 15 8 ENE 1026,0 44 0 0,0
16.02.2018 19:00:00 2,6 0,7 0,0 5,2 6,9 11 6 18 10 ENE 1026,1 50 0 0,0
16.02.2018 18:00:00 5,4 1,1 2,6 5,2 6,8 10 5 27 15 ENE 1025,7 59 0 0,0
16.02.2018 17:00:00 8,5 0,9 7,5 5,1 6,8 8 4 29 15 E 1025,7 20 47 0,0
16.02.2018 16:00:00 8,3 1,2 9,2 5,2 6,9 8 4 16 9 E 1026,4 57 0 0,0
16.02.2018 15:00:00 8,5 1,2 10,3 5,2 6,9 7 4 11 6 ENE 1026,9 51 13 0,0
16.02.2018 14:00:00 9,2 2,1 10,4 5,2 6,8 4 2 11 6 E 1027,3 20 50 0,0
16.02.2018 13:00:00 8,1 2,5 10,7 5,2 6,8 3 1 7 4 SE 1027,8 20 38 0,0
16.02.2018 12:00:00 8,1 4,3 11,0 5,2 6,8 2 1 8 4 SE 1028,1 11 60 0,0
16.02.2018 11:00:00 5,3 3,0 5,4 5,2 6,8 3 1 5 3 SSE 1028,3 10 60 0,0
16.02.2018 10:00:00 2,8 2,4 0,3 5,3 6,8 3 2 8 4 ESE 1028,1 5 60 0,0
16.02.2018 09:00:00 0,2 -0,1 -4,0 5,3 6,8 0 0 8 4 N 1027,3 5 21 0,0
16.02.2018 08:00:00 -1,0 -1,3 -3,9 5,3 6,8 5 3 9 5 WNW 1027,0 1,2 0 0,0
16.02.2018 07:00:00 -2,6 -3,2 -3,8 5,3 6,9 8 4 10 5 NW 1026,5 7 0 0,0
16.02.2018 06:00:00 -1,9 -2,5 -3,5 5,3 6,8 9 5 10 5 W 1026,1 4,3 0 0,0
16.02.2018 05:00:00 -0,7 -1,3 -3,1 5,3 6,9 5 3 7 4 WNW 1025,4 6 0 0,0
16.02.2018 04:00:00 -0,2 -1,3 -2,3 5,3 6,8 3 2 6 3 W 1024,9 11 0 0,0
16.02.2018 03:00:00 1,5 0,5 -1,6 5,2 6,8 6 3 9 5 W 1024,4 15 0 0,0
16.02.2018 02:00:00 2,3 1,1 -1,2 5,2 6,8 8 4 9 5 WSW 1023,8 14 0 0,0
16.02.2018 01:00:00 3,6 2,1 0,4 5,2 6,8 6 4 18 10 WSW 1023,1 17 0 0,0
16.02.2018 00:00:00 5,3 3,0 3,0 5,2 6,9 14 8 19 11 W 1022,5 19 0 0,0
15.02.2018 23:00:00 5,8 3,1 3,1 5,1 6,9 13 7 18 10 W 1021,4 20 0 0,0
15.02.2018 22:00:00 6,2 4,0 4,4 5,0 6,8 10 5 14 8 W 1020,6 20 0 0,0
15.02.2018 21:00:00 6,4 4,6 4,8 5,0 6,8 8 5 12 6 W 1019,8 20 0 0,0
15.02.2018 20:00:00 7,2 4,5 5,0 5,0 6,9 11 6 17 9 WNW 1019,0 45 0 0,0
15.02.2018 19:00:00 7,2 4,2 5,6 4,9 6,9 10 6 22 12 WNW 1018,0 56 0 0,0
15.02.2018 18:00:00 9,1 3,9 6,8 4,8 6,9 19 10 27 14 WNW 1017,1 57 0 0,0
15.02.2018 17:00:00 10,0 6,0 8,8 4,8 6,9 13 7 21 11 W 1016,0 20 0 0,0
15.02.2018 16:00:00 10,3 6,8 9,3 4,8 6,9 14 8 20 11 W 1015,2 20 0 0,0
15.02.2018 15:00:00 9,9 8,0 9,4 4,7 6,8 11 6 24 13 W 1014,6 13 0 0,0
15.02.2018 14:00:00 10,4 8,2 9,7 4,7 6,9 13 7 32 17 W 1014,0 17 0 0,2
15.02.2018 13:00:00 10,4 8,8 10,4 4,7 6,9 16 9 26 14 WSW 1013,3 11 0 0,2
15.02.2018 12:00:00 10,5 9,4 9,8 4,7 6,9 13 7 19 10 WSW 1013,0 18 0 0,0
15.02.2018 11:00:00 9,6 9,0 8,1 4,6 6,9 13 7 22 12 WSW 1012,4 19 2 0,0
15.02.2018 10:00:00 8,2 7,9 7,0 4,6 6,9 9 5 14 8 SSW 1011,4 3,4 0 0,6
15.02.2018 09:00:00 7,4 7,1 6,0 4,6 6,9 11 6 16 8 SSW 1010,6 3,9 2 0,2
15.02.2018 08:00:00 6,8 6,4 5,7 4,6 6,9 9 5 16 9 SSW 1009,9 9 0 0,0
15.02.2018 07:00:00 6,2 5,8 5,3 4,6 6,9 10 5 18 10 S 1009,0 9 0 0,0
15.02.2018 06:00:00 5,8 5,5 4,6 4,6 6,9 11 6 16 9 S 1008,4 16 0 0,0
15.02.2018 05:00:00 4,8 4,4 4,3 4,6 6,9 6 3 13 7 ESE 1008,1 10 0 0,0
15.02.2018 04:00:00 4,7 4,3 4,1 4,5 6,9 11 6 22 12 S 1007,9 7 0 0,0
15.02.2018 03:00:00 4,4 4,0 3,9 4,5 6,9 15 8 24 13 S 1007,8 4,3 0 0,2
15.02.2018 02:00:00 4,3 3,7 3,6 4,5 6,9 15 8 27 15 S 1007,8 4,8 0 0,2

tt = Température de l'air
td = dewpoint
tt 5cm = Température de l'air 5cm
tt -20cm = Température de l'air -20cm
tt -100cm = Température de l'air -100cm
ff = Vitesse du vent
fx = gusts
dd = Direction du vent
ppp = reduced air pressure
vv = visibility
sd = Ensoleillement
rr = Quantités de précipitations

stations d'obs. à proximité